Time,TemperatureF,DewpointF,PressureIn,WindDirection,WindDirectionDegrees,WindSpeedMPH,WindSpeedGustMPH,Humidity,HourlyPrecipIn,Conditions,Clouds,dailyrainin,SoftwareType,DateUTC
2013-02-21 00:01:00,44.7,37.9,30.06,West,264,1.0,3.0,77,0.00,,,0.00,WeatherCatV1.13B119,2013-02-21 08:01:00,
2013-02-21 00:06:00,44.8,38.0,30.06,WSW,238,0.0,0.0,77,0.00,,,0.00,WeatherCatV1.13B119,2013-02-21 08:06:00,
2013-02-21 00:11:00,44.8,38.0,30.06,SW,229,0.0,0.0,77,0.00,,,0.00,WeatherCatV1.13B119,2013-02-21 08:11:00,
2013-02-21 00:16:00,44.7,37.9,30.06,WSW,239,1.0,2.0,77,0.00,,,0.00,WeatherCatV1.13B119,2013-02-21 08:16:00,
2013-02-21 00:21:00,44.7,37.9,30.06,SSW,197,1.0,3.0,77,0.00,,,0.00,WeatherCatV1.13B119,2013-02-21 08:21:00,
2013-02-21 00:26:00,44.7,37.6,30.06,SSW,197,0.0,0.0,76,0.00,,,0.00,WeatherCatV1.13B119,2013-02-21 08:26:00,
2013-02-21 00:31:00,44.7,37.6,30.06,South,181,0.0,0.0,76,0.00,,,0.00,WeatherCatV1.13B119,2013-02-21 08:31:00,
2013-02-21 00:36:00,44.5,37.4,30.06,South,183,0.0,0.0,76,0.00,,,0.00,WeatherCatV1.13B119,2013-02-21 08:36:00,
2013-02-21 00:41:00,44.5,37.4,30.06,SSW,201,1.0,2.0,76,0.00,,,0.00,WeatherCatV1.13B119,2013-02-21 08:41:00,
2013-02-21 00:46:00,44.5,37.4,30.06,West,262,0.0,1.0,76,0.00,,,0.00,WeatherCatV1.13B119,2013-02-21 08:46:00,
2013-02-21 00:51:00,44.5,37.1,30.06,SW,232,0.0,0.0,75,0.00,,,0.00,WeatherCatV1.13B119,2013-02-21 08:51:00,
2013-02-21 00:56:00,44.5,37.1,30.07,NE,44,0.0,4.0,75,0.00,,,0.00,WeatherCatV1.13B119,2013-02-21 08:56:00,
2013-02-21 01:01:00,44.4,37.3,30.07,NE,45,0.0,0.0,76,0.00,,,0.00,WeatherCatV1.13B119,2013-02-21 09:01:00,
2013-02-21 01:06:00,44.3,37.2,30.07,SW,225,0.0,0.0,76,0.00,,,0.00,WeatherCatV1.13B119,2013-02-21 09:06:00,
2013-02-21 01:11:00,44.1,37.0,30.07,SW,225,0.0,0.0,76,0.00,,,0.00,WeatherCatV1.13B119,2013-02-21 09:11:00,
2013-02-21 01:16:00,44.0,36.9,30.07,East,91,0.0,0.0,76,0.00,,,0.00,WeatherCatV1.13B119,2013-02-21 09:16:00,
2013-02-21 01:21:00,44.0,36.9,30.07,WSW,255,1.0,1.0,76,0.00,,,0.00,WeatherCatV1.13B119,2013-02-21 09:21:00,
2013-02-21 01:26:00,43.9,37.2,30.07,WSW,240,0.0,2.0,77,0.00,,,0.00,WeatherCatV1.13B119,2013-02-21 09:26:00,
2013-02-21 01:31:00,43.9,37.2,30.07,SW,233,0.0,2.0,77,0.00,,,0.00,WeatherCatV1.13B119,2013-02-21 09:31:00,
2013-02-21 01:36:00,43.9,37.2,30.07,SSW,205,0.0,0.0,77,0.00,,,0.00,WeatherCatV1.13B119,2013-02-21 09:36:00,
2013-02-21 01:41:00,43.8,37.1,30.07,WSW,249,0.0,0.0,77,0.00,,,0.00,WeatherCatV1.13B119,2013-02-21 09:41:00,
2013-02-21 01:46:00,43.7,37.0,30.07,WSW,241,0.0,0.0,77,0.00,,,0.00,WeatherCatV1.13B119,2013-02-21 09:46:00,
2013-02-21 01:51:00,43.5,36.8,30.07,WSW,237,0.0,0.0,77,0.00,,,0.00,WeatherCatV1.13B119,2013-02-21 09:51:00,
2013-02-21 01:56:00,43.3,36.9,30.07,ESE,107,0.0,0.0,78,0.00,,,0.00,WeatherCatV1.13B119,2013-02-21 09:56:00,
2013-02-21 02:01:00,43.1,36.7,30.07,SSE,157,0.0,0.0,78,0.00,,,0.00,WeatherCatV1.13B119,2013-02-21 10:01:00,
2013-02-21 02:06:00,42.9,36.8,30.07,SE,134,0.0,0.0,79,0.00,,,0.00,WeatherCatV1.13B119,2013-02-21 10:06:00,
2013-02-21 02:11:00,42.8,37.1,30.07,SE,141,0.0,0.0,80,0.00,,,0.00,WeatherCatV1.13B119,2013-02-21 10:11:00,
2013-02-21 02:16:00,42.7,37.0,30.06,SE,127,0.0,0.0,80,0.00,,,0.00,WeatherCatV1.13B119,2013-02-21 10:16:00,
2013-02-21 02:21:00,42.7,37.0,30.06,SSE,153,0.0,0.0,80,0.00,,,0.00,WeatherCatV1.13B119,2013-02-21 10:21:00,
2013-02-21 02:26:00,42.6,36.9,30.06,SW,218,0.0,0.0,80,0.00,,,0.00,WeatherCatV1.13B119,2013-02-21 10:26:00,
2013-02-21 02:31:00,42.4,36.7,30.06,SSW,204,0.0,0.0,80,0.00,,,0.00,WeatherCatV1.13B119,2013-02-21 10:31:00,
2013-02-21 02:36:00,42.3,36.9,30.06,ESE,121,0.0,0.0,81,0.00,,,0.00,WeatherCatV1.13B119,2013-02-21 10:36:00,
2013-02-21 02:41:00,42.3,36.6,30.06,SSE,163,0.0,0.0,80,0.00,,,0.00,WeatherCatV1.13B119,2013-02-21 10:41:00,
2013-02-21 02:46:00,42.3,36.6,30.06,SW,229,0.0,0.0,80,0.00,,,0.00,WeatherCatV1.13B119,2013-02-21 10:46:00,
2013-02-21 02:51:00,42.3,36.6,30.06,SW,229,0.0,0.0,80,0.00,,,0.00,WeatherCatV1.13B119,2013-02-21 10:51:00,
2013-02-21 02:56:00,42.3,36.3,30.06,SW,229,0.0,0.0,79,0.00,,,0.00,WeatherCatV1.13B119,2013-02-21 10:56:00,
2013-02-21 03:01:00,42.4,36.4,30.06,SSW,201,0.0,0.0,79,0.00,,,0.00,WeatherCatV1.13B119,2013-02-21 11:01:00,
2013-02-21 03:06:00,42.5,36.5,30.06,West,271,0.0,1.0,79,0.00,,,0.00,WeatherCatV1.13B119,2013-02-21 11:06:00,
2013-02-21 03:11:00,42.6,36.6,30.06,WSW,249,0.0,1.0,79,0.00,,,0.00,WeatherCatV1.13B119,2013-02-21 11:11:00,
2013-02-21 03:16:00,42.7,36.6,30.06,SW,229,0.0,0.0,79,0.00,,,0.00,WeatherCatV1.13B119,2013-02-21 11:16:00,
2013-02-21 03:21:00,42.8,36.7,30.06,WSW,240,1.0,2.0,79,0.00,,,0.00,WeatherCatV1.13B119,2013-02-21 11:21:00,
2013-02-21 03:26:00,42.8,37.1,30.06,WSW,243,0.0,0.0,80,0.00,,,0.00,WeatherCatV1.13B119,2013-02-21 11:26:00,
2013-02-21 03:31:00,42.9,37.2,30.05,WSW,255,0.0,1.0,80,0.00,,,0.00,WeatherCatV1.13B119,2013-02-21 11:31:00,
2013-02-21 03:36:00,43.0,37.3,30.05,WSW,250,0.0,3.0,80,0.00,,,0.00,WeatherCatV1.13B119,2013-02-21 11:36:00,
2013-02-21 03:41:00,43.0,37.3,30.06,West,259,1.0,2.0,80,0.00,,,0.00,WeatherCatV1.13B119,2013-02-21 11:41:00,
2013-02-21 03:46:00,43.0,37.3,30.06,SW,226,0.0,1.0,80,0.00,,,0.00,WeatherCatV1.13B119,2013-02-21 11:46:00,
2013-02-21 03:51:00,42.9,37.2,30.06,WSW,256,0.0,0.0,80,0.00,,,0.00,WeatherCatV1.13B119,2013-02-21 11:51:00,
2013-02-21 03:56:00,42.9,37.2,30.06,SSW,204,0.0,0.0,80,0.00,,,0.00,WeatherCatV1.13B119,2013-02-21 11:56:00,
2013-02-21 04:01:00,42.7,37.3,30.06,West,280,0.0,2.0,81,0.00,,,0.00,WeatherCatV1.13B119,2013-02-21 12:01:00,
2013-02-21 04:06:00,42.7,37.3,30.06,WSW,245,0.0,1.0,81,0.00,,,0.00,WeatherCatV1.13B119,2013-02-21 12:06:00,
2013-02-21 04:11:00,42.8,37.4,30.06,WSW,257,0.0,1.0,81,0.00,,,0.00,WeatherCatV1.13B119,2013-02-21 12:11:00,
2013-02-21 04:16:00,42.9,37.5,30.06,WSW,238,0.0,2.0,81,0.00,,,0.00,WeatherCatV1.13B119,2013-02-21 12:16:00,
2013-02-21 04:21:00,42.9,37.5,30.06,WSW,240,0.0,0.0,81,0.00,,,0.00,WeatherCatV1.13B119,2013-02-21 12:21:00,
2013-02-21 04:26:00,42.9,37.5,30.06,WSW,250,1.0,2.0,81,0.00,,,0.00,WeatherCatV1.13B119,2013-02-21 12:26:00,
2013-02-21 04:31:00,42.9,37.5,30.06,West,266,1.0,2.0,81,0.00,,,0.00,WeatherCatV1.13B119,2013-02-21 12:31:00,
2013-02-21 04:36:00,42.8,37.7,30.06,NW,304,0.0,0.0,82,0.00,,,0.00,WeatherCatV1.13B119,2013-02-21 12:36:00,
2013-02-21 04:42:00,42.9,37.8,30.07,SSW,195,0.0,0.0,82,0.00,,,0.00,WeatherCatV1.13B119,2013-02-21 12:42:00,
2013-02-21 04:47:00,42.9,37.8,30.06,WSW,240,0.0,0.0,82,0.00,,,0.00,WeatherCatV1.13B119,2013-02-21 12:47:00,
2013-02-21 04:52:00,42.8,37.7,30.06,WSW,256,0.0,0.0,82,0.00,,,0.00,WeatherCatV1.13B119,2013-02-21 12:52:00,
2013-02-21 04:57:00,42.7,37.6,30.07,West,262,1.0,3.0,82,0.00,,,0.00,WeatherCatV1.13B119,2013-02-21 12:57:00,
2013-02-21 05:02:00,42.9,37.8,30.07,West,259,1.0,3.0,82,0.00,,,0.00,WeatherCatV1.13B119,2013-02-21 13:02:00,
2013-02-21 05:07:00,43.0,37.9,30.07,SW,229,1.0,2.0,82,0.00,,,0.00,WeatherCatV1.13B119,2013-02-21 13:07:00,
2013-02-21 05:12:00,42.9,37.8,30.07,WSW,256,0.0,0.0,82,0.00,,,0.00,WeatherCatV1.13B119,2013-02-21 13:12:00,
2013-02-21 05:17:00,42.8,38.0,30.08,WSW,256,1.0,2.0,83,0.00,,,0.00,WeatherCatV1.13B119,2013-02-21 13:17:00,
2013-02-21 05:22:00,42.7,37.9,30.08,SW,226,0.0,1.0,83,0.00,,,0.00,WeatherCatV1.13B119,2013-02-21 13:22:00,
2013-02-21 05:27:00,42.6,37.5,30.07,SE,127,0.0,0.0,82,0.00,,,0.00,WeatherCatV1.13B119,2013-02-21 13:27:00,
2013-02-21 05:32:00,42.5,37.4,30.08,SE,129,0.0,0.0,82,0.00,,,0.00,WeatherCatV1.13B119,2013-02-21 13:32:00,
2013-02-21 05:37:00,42.3,37.2,30.08,SE,129,0.0,0.0,82,0.00,,,0.00,WeatherCatV1.13B119,2013-02-21 13:37:00,
2013-02-21 05:42:00,42.0,37.2,30.08,SE,128,0.0,0.0,83,0.00,,,0.00,WeatherCatV1.13B119,2013-02-21 13:42:00,
2013-02-21 05:47:00,41.9,37.1,30.08,SE,129,0.0,0.0,83,0.00,,,0.00,WeatherCatV1.13B119,2013-02-21 13:47:00,
2013-02-21 05:52:00,41.8,37.3,30.08,SW,224,0.0,0.0,84,0.00,,,0.00,WeatherCatV1.13B119,2013-02-21 13:52:00,
2013-02-21 05:57:00,41.7,37.2,30.09,SW,219,0.0,0.0,84,0.00,,,0.00,WeatherCatV1.13B119,2013-02-21 13:57:00,
2013-02-21 06:02:00,41.7,37.2,30.09,SW,222,0.0,0.0,84,0.00,,,0.00,WeatherCatV1.13B119,2013-02-21 14:02:00,
2013-02-21 06:07:00,41.9,37.1,30.09,SW,222,0.0,0.0,83,0.00,,,0.00,WeatherCatV1.13B119,2013-02-21 14:07:00,
2013-02-21 06:12:00,42.0,37.2,30.09,West,259,0.0,0.0,83,0.00,,,0.00,WeatherCatV1.13B119,2013-02-21 14:12:00,
2013-02-21 06:17:00,42.0,37.2,30.09,SW,226,0.0,0.0,83,0.00,,,0.00,WeatherCatV1.13B119,2013-02-21 14:17:00,
2013-02-21 06:22:00,42.1,37.3,30.09,WSW,241,0.0,0.0,83,0.00,,,0.00,WeatherCatV1.13B119,2013-02-21 14:22:00,
2013-02-21 06:27:00,42.0,37.2,30.09,WSW,253,0.0,0.0,83,0.00,,,0.00,WeatherCatV1.13B119,2013-02-21 14:27:00,
2013-02-21 06:32:00,42.0,37.2,30.09,WSW,252,0.0,0.0,83,0.00,,,0.00,WeatherCatV1.13B119,2013-02-21 14:32:00,
2013-02-21 06:37:00,42.1,37.0,30.10,WSW,249,0.0,0.0,82,0.00,,,0.00,WeatherCatV1.13B119,2013-02-21 14:37:00,
2013-02-21 06:42:00,42.2,37.1,30.10,SW,218,0.0,0.0,82,0.00,,,0.00,WeatherCatV1.13B119,2013-02-21 14:42:00,
2013-02-21 06:47:00,42.2,36.8,30.10,SW,224,0.0,0.0,81,0.00,,,0.00,WeatherCatV1.13B119,2013-02-21 14:47:00,
2013-02-21 06:52:00,42.1,36.7,30.10,SW,224,0.0,0.0,81,0.00,,,0.00,WeatherCatV1.13B119,2013-02-21 14:52:00,
2013-02-21 06:57:00,42.0,36.6,30.10,WSW,258,0.0,0.0,81,0.00,,,0.00,WeatherCatV1.13B119,2013-02-21 14:57:00,
2013-02-21 07:02:00,42.1,36.7,30.10,NE,36,0.0,0.0,81,0.00,,,0.00,WeatherCatV1.13B119,2013-02-21 15:02:00,
2013-02-21 07:07:00,42.1,36.7,30.10,WNW,297,0.0,0.0,81,0.00,,,0.00,WeatherCatV1.13B119,2013-02-21 15:07:00,
2013-02-21 07:12:00,42.1,37.0,30.10,West,267,0.0,0.0,82,0.00,,,0.00,WeatherCatV1.13B119,2013-02-21 15:12:00,
2013-02-21 07:17:00,42.2,36.8,30.10,WSW,241,0.0,0.0,81,0.00,,,0.00,WeatherCatV1.13B119,2013-02-21 15:17:00,
2013-02-21 07:22:00,42.2,36.8,30.10,WSW,252,0.0,0.0,81,0.00,,,0.00,WeatherCatV1.13B119,2013-02-21 15:22:00,
2013-02-21 07:27:00,42.4,37.0,30.10,WSW,250,1.0,2.0,81,0.00,,,0.00,WeatherCatV1.13B119,2013-02-21 15:27:00,
2013-02-21 07:32:00,42.5,36.8,30.10,WSW,250,0.0,0.0,80,0.00,,,0.00,WeatherCatV1.13B119,2013-02-21 15:32:00,
2013-02-21 07:37:00,42.6,36.9,30.11,WSW,248,0.0,0.0,80,0.00,,,0.00,WeatherCatV1.13B119,2013-02-21 15:37:00,
2013-02-21 07:42:00,42.6,36.9,30.11,SW,229,0.0,0.0,80,0.00,,,0.00,WeatherCatV1.13B119,2013-02-21 15:42:00,
2013-02-21 07:47:00,42.7,37.0,30.11,WSW,251,0.0,0.0,80,0.00,,,0.00,WeatherCatV1.13B119,2013-02-21 15:47:00,
2013-02-21 07:52:00,43.0,37.3,30.11,WSW,252,0.0,0.0,80,0.00,,,0.00,WeatherCatV1.13B119,2013-02-21 15:52:00,
2013-02-21 07:57:00,43.2,37.1,30.12,SSE,166,0.0,0.0,79,0.00,,,0.00,WeatherCatV1.13B119,2013-02-21 15:57:00,
2013-02-21 08:02:00,43.4,37.3,30.12,WSW,253,0.0,0.0,79,0.00,,,0.00,WeatherCatV1.13B119,2013-02-21 16:02:00,
2013-02-21 08:07:00,43.6,37.5,30.12,SW,233,1.0,2.0,79,0.00,,,0.00,WeatherCatV1.13B119,2013-02-21 16:07:00,
2013-02-21 08:12:00,44.2,38.1,30.12,West,273,0.0,2.0,79,0.00,,,0.00,WeatherCatV1.13B119,2013-02-21 16:12:00,
2013-02-21 08:17:00,44.9,38.5,30.12,SW,231,0.0,0.0,78,0.00,,,0.00,WeatherCatV1.13B119,2013-02-21 16:17:00,
2013-02-21 08:22:00,45.7,38.9,30.12,WSW,248,0.0,0.0,77,0.00,,,0.00,WeatherCatV1.13B119,2013-02-21 16:22:00,
2013-02-21 08:27:00,46.6,39.1,30.13,WSW,246,0.0,0.0,75,0.00,,,0.00,WeatherCatV1.13B119,2013-02-21 16:27:00,
2013-02-21 08:32:00,47.4,39.2,30.13,SW,218,0.0,0.0,73,0.00,,,0.00,WeatherCatV1.13B119,2013-02-21 16:32:00,
2013-02-21 08:37:00,48.0,39.8,30.13,South,174,0.0,0.0,73,0.00,,,0.00,WeatherCatV1.13B119,2013-02-21 16:37:00,
2013-02-21 08:42:00,48.7,39.7,30.14,NE,51,0.0,2.0,71,0.00,,,0.00,WeatherCatV1.13B119,2013-02-21 16:42:00,
2013-02-21 08:47:00,49.4,40.0,30.14,WSW,256,0.0,0.0,70,0.00,,,0.00,WeatherCatV1.13B119,2013-02-21 16:47:00,
2013-02-21 08:52:00,49.9,39.8,30.14,WSW,249,0.0,2.0,68,0.00,,,0.00,WeatherCatV1.13B119,2013-02-21 16:52:00,
2013-02-21 08:57:00,50.2,39.7,30.14,WSW,257,1.0,2.0,67,0.00,,,0.00,WeatherCatV1.13B119,2013-02-21 16:57:00,
2013-02-21 09:02:00,50.7,39.8,30.14,SW,233,1.0,2.0,66,0.00,,,0.00,WeatherCatV1.13B119,2013-02-21 17:02:00,
2013-02-21 09:07:00,51.5,40.1,30.14,West,269,1.0,2.0,65,0.00,,,0.00,WeatherCatV1.13B119,2013-02-21 17:07:00,
2013-02-21 09:12:00,52.0,40.2,30.14,SW,219,0.0,2.0,64,0.00,,,0.00,WeatherCatV1.13B119,2013-02-21 17:12:00,
2013-02-21 09:17:00,52.2,40.0,30.14,WSW,244,0.0,2.0,63,0.00,,,0.00,WeatherCatV1.13B119,2013-02-21 17:17:00,
2013-02-21 09:22:00,52.4,39.8,30.14,South,186,0.0,0.0,62,0.00,,,0.00,WeatherCatV1.13B119,2013-02-21 17:22:00,
2013-02-21 09:27:00,53.0,41.6,30.15,SW,225,0.0,0.0,65,0.00,,,0.00,WeatherCatV1.13B119,2013-02-21 17:27:00,
2013-02-21 09:32:00,53.7,41.4,30.15,West,262,0.0,0.0,63,0.00,,,0.00,WeatherCatV1.13B119,2013-02-21 17:32:00,
2013-02-21 09:37:00,53.4,39.9,30.15,NW,309,0.0,0.0,60,0.00,,,0.00,WeatherCatV1.13B119,2013-02-21 17:37:00,
2013-02-21 09:42:00,53.3,40.2,30.15,NW,310,0.0,0.0,61,0.00,,,0.00,WeatherCatV1.13B119,2013-02-21 17:42:00,
2013-02-21 09:47:00,53.4,40.3,30.15,WSW,246,0.0,1.0,61,0.00,,,0.00,WeatherCatV1.13B119,2013-02-21 17:47:00,
2013-02-21 09:52:00,53.6,40.1,30.15,WNW,292,2.0,2.0,60,0.00,,,0.00,WeatherCatV1.13B119,2013-02-21 17:52:00,
2013-02-21 09:57:00,53.9,40.3,30.15,WSW,246,0.0,2.0,60,0.00,,,0.00,WeatherCatV1.13B119,2013-02-21 17:57:00,
2013-02-21 10:02:00,54.0,40.0,30.16,WNW,284,0.0,0.0,59,0.00,,,0.00,WeatherCatV1.13B119,2013-02-21 18:02:00,
2013-02-21 10:07:00,54.1,39.7,30.16,WNW,293,1.0,1.0,58,0.00,,,0.00,WeatherCatV1.13B119,2013-02-21 18:07:00,
2013-02-21 10:12:00,54.1,38.8,30.16,West,278,1.0,2.0,56,0.00,,,0.00,WeatherCatV1.13B119,2013-02-21 18:12:00,
2013-02-21 10:17:00,54.3,38.5,30.16,SW,233,0.0,0.0,55,0.00,,,0.00,WeatherCatV1.13B119,2013-02-21 18:17:00,
2013-02-21 10:22:00,54.5,38.7,30.16,North,8,0.0,0.0,55,0.00,,,0.00,WeatherCatV1.13B119,2013-02-21 18:22:00,
2013-02-21 10:27:00,54.6,39.2,30.16,WNW,291,0.0,0.0,56,0.00,,,0.00,WeatherCatV1.13B119,2013-02-21 18:27:00,
2013-02-21 10:32:00,54.7,38.9,30.16,NW,322,1.0,1.0,55,0.00,,,0.00,WeatherCatV1.13B119,2013-02-21 18:32:00,
2013-02-21 10:37:00,54.6,39.7,30.16,NNE,27,0.0,2.0,57,0.00,,,0.00,WeatherCatV1.13B119,2013-02-21 18:37:00,
2013-02-21 10:42:00,54.7,41.1,30.17,WSW,246,0.0,1.0,60,0.00,,,0.00,WeatherCatV1.13B119,2013-02-21 18:42:00,
2013-02-21 10:47:00,55.9,40.9,30.17,WSW,243,0.0,0.0,57,0.00,,,0.00,WeatherCatV1.13B119,2013-02-21 18:47:00,
2013-02-21 10:52:00,56.2,41.6,30.17,SSW,210,0.0,0.0,58,0.00,,,0.00,WeatherCatV1.13B119,2013-02-21 18:52:00,
2013-02-21 10:57:00,56.3,41.3,30.17,ENE,65,0.0,0.0,57,0.00,,,0.00,WeatherCatV1.13B119,2013-02-21 18:57:00,
2013-02-21 11:02:00,56.8,42.6,30.17,West,277,0.0,0.0,59,0.00,,,0.00,WeatherCatV1.13B119,2013-02-21 19:02:00,
2013-02-21 11:07:00,57.2,41.6,30.17,South,169,0.0,0.0,56,0.00,,,0.00,WeatherCatV1.13B119,2013-02-21 19:07:00,
2013-02-21 11:12:00,57.6,42.0,30.17,WSW,255,0.0,0.0,56,0.00,,,0.00,WeatherCatV1.13B119,2013-02-21 19:12:00,
2013-02-21 11:17:00,58.3,43.1,30.16,WNW,293,0.0,0.0,57,0.00,,,0.00,WeatherCatV1.13B119,2013-02-21 19:17:00,
2013-02-21 11:22:00,59.1,41.5,30.16,NW,326,0.0,1.0,52,0.00,,,0.00,WeatherCatV1.13B119,2013-02-21 19:22:00,
2013-02-21 11:27:00,59.4,40.8,30.16,WSW,238,0.0,0.0,50,0.00,,,0.00,WeatherCatV1.13B119,2013-02-21 19:27:00,
2013-02-21 11:32:00,59.7,42.5,30.16,SW,215,0.0,0.0,53,0.00,,,0.00,WeatherCatV1.13B119,2013-02-21 19:32:00,
2013-02-21 11:37:00,60.3,41.1,30.15,SSW,208,1.0,2.0,49,0.00,,,0.00,WeatherCatV1.13B119,2013-02-21 19:37:00,
2013-02-21 11:42:00,60.6,40.3,30.15,WSW,243,0.0,0.0,47,0.00,,,0.00,WeatherCatV1.13B119,2013-02-21 19:42:00,
2013-02-21 11:47:00,59.8,38.4,30.15,NW,321,1.0,3.0,45,0.00,,,0.00,WeatherCatV1.13B119,2013-02-21 19:47:00,
2013-02-21 11:52:00,59.1,38.3,30.15,NNE,30,0.0,0.0,46,0.00,,,0.00,WeatherCatV1.13B119,2013-02-21 19:52:00,
2013-02-21 11:57:00,58.7,38.5,30.16,NW,307,0.0,0.0,47,0.00,,,0.00,WeatherCatV1.13B119,2013-02-21 19:57:00,
2013-02-21 12:02:00,58.7,38.5,30.15,WSW,247,0.0,2.0,47,0.00,,,0.00,WeatherCatV1.13B119,2013-02-21 20:02:00,
2013-02-21 12:07:00,59.0,38.8,30.15,West,273,1.0,3.0,47,0.00,,,0.00,WeatherCatV1.13B119,2013-02-21 20:07:00,
2013-02-21 12:12:00,59.7,40.5,30.15,SW,231,1.0,1.0,49,0.00,,,0.00,WeatherCatV1.13B119,2013-02-21 20:12:00,
2013-02-21 12:17:00,60.7,41.4,30.15,NNW,328,0.0,0.0,49,0.00,,,0.00,WeatherCatV1.13B119,2013-02-21 20:17:00,
2013-02-21 12:22:00,59.4,36.9,30.15,NE,55,0.0,2.0,43,0.00,,,0.00,WeatherCatV1.13B119,2013-02-21 20:22:00,
2013-02-21 12:27:00,59.2,37.9,30.15,NE,48,0.0,1.0,45,0.00,,,0.00,WeatherCatV1.13B119,2013-02-21 20:27:00,
2013-02-21 12:32:00,59.7,36.6,30.15,NNE,20,0.0,1.0,42,0.00,,,0.00,WeatherCatV1.13B119,2013-02-21 20:32:00,
2013-02-21 12:37:00,59.7,38.9,30.14,SW,221,0.0,1.0,46,0.00,,,0.00,WeatherCatV1.13B119,2013-02-21 20:37:00,
2013-02-21 12:42:00,60.2,37.0,30.14,NE,46,0.0,2.0,42,0.00,,,0.00,WeatherCatV1.13B119,2013-02-21 20:42:00,
2013-02-21 12:47:00,60.9,38.8,30.14,West,264,0.0,0.0,44,0.00,,,0.00,WeatherCatV1.13B119,2013-02-21 20:47:00,
2013-02-21 12:52:00,61.6,38.9,30.14,WNW,294,0.0,0.0,43,0.00,,,0.00,WeatherCatV1.13B119,2013-02-21 20:52:00,
2013-02-21 12:57:00,61.8,36.6,30.14,ENE,62,0.0,0.0,39,0.00,,,0.00,WeatherCatV1.13B119,2013-02-21 20:57:00,
2013-02-21 13:02:00,61.4,38.7,30.14,NE,48,0.0,0.0,43,0.00,,,0.00,WeatherCatV1.13B119,2013-02-21 21:02:00,
2013-02-21 13:07:00,61.3,37.4,30.14,NE,46,0.0,1.0,41,0.00,,,0.00,WeatherCatV1.13B119,2013-02-21 21:07:00,
2013-02-21 13:12:00,61.2,36.7,30.13,ESE,120,0.0,0.0,40,0.00,,,0.00,WeatherCatV1.13B119,2013-02-21 21:12:00,
2013-02-21 13:17:00,61.0,36.5,30.13,NE,50,0.0,0.0,40,0.00,,,0.00,WeatherCatV1.13B119,2013-02-21 21:17:00,
2013-02-21 13:22:00,61.1,36.0,30.13,ENE,76,2.0,2.0,39,0.00,,,0.00,WeatherCatV1.13B119,2013-02-21 21:22:00,
2013-02-21 13:27:00,61.3,36.8,30.13,ENE,74,0.0,0.0,40,0.00,,,0.00,WeatherCatV1.13B119,2013-02-21 21:27:00,
2013-02-21 13:32:00,62.5,39.1,30.13,SSW,205,0.0,0.0,42,0.00,,,0.00,WeatherCatV1.13B119,2013-02-21 21:32:00,
2013-02-21 13:37:00,63.7,38.3,30.13,WSW,258,0.0,0.0,39,0.00,,,0.00,WeatherCatV1.13B119,2013-02-21 21:37:00,
2013-02-21 13:42:00,61.9,37.3,30.13,WSW,241,3.0,5.0,40,0.00,,,0.00,WeatherCatV1.13B119,2013-02-21 21:42:00,
2013-02-21 13:47:00,60.9,37.7,30.13,SSW,209,2.0,4.0,42,0.00,,,0.00,WeatherCatV1.13B119,2013-02-21 21:47:00,
2013-02-21 13:52:00,60.1,36.9,30.13,West,259,4.0,5.0,42,0.00,,,0.00,WeatherCatV1.13B119,2013-02-21 21:52:00,
2013-02-21 13:57:00,59.9,38.5,30.13,East,98,1.0,2.0,45,0.00,,,0.00,WeatherCatV1.13B119,2013-02-21 21:57:00,
2013-02-21 14:02:00,60.3,37.7,30.13,WSW,239,4.0,5.0,43,0.00,,,0.00,WeatherCatV1.13B119,2013-02-21 22:02:00,
2013-02-21 14:07:00,60.2,39.3,30.12,WSW,257,3.0,6.0,46,0.00,,,0.00,WeatherCatV1.13B119,2013-02-21 22:07:00,
2013-02-21 14:12:00,60.3,38.9,30.12,West,269,7.0,9.0,45,0.00,,,0.00,WeatherCatV1.13B119,2013-02-21 22:12:00,
2013-02-21 14:17:00,59.7,40.0,30.12,WSW,243,7.0,9.0,48,0.00,,,0.00,WeatherCatV1.13B119,2013-02-21 22:17:00,
2013-02-21 14:22:00,59.3,40.7,30.12,WSW,252,7.0,11.0,50,0.00,,,0.00,WeatherCatV1.13B119,2013-02-21 22:22:00,
2013-02-21 14:27:00,58.9,40.8,30.12,West,276,7.0,10.0,51,0.00,,,0.00,WeatherCatV1.13B119,2013-02-21 22:27:00,
2013-02-21 14:32:00,59.2,41.1,30.12,West,260,5.0,10.0,51,0.00,,,0.00,WeatherCatV1.13B119,2013-02-21 22:32:00,
2013-02-21 14:37:00,59.5,39.8,30.12,WSW,243,6.0,9.0,48,0.00,,,0.00,WeatherCatV1.13B119,2013-02-21 22:37:00,
2013-02-21 14:42:00,59.6,40.9,30.11,WSW,245,3.0,8.0,50,0.00,,,0.00,WeatherCatV1.13B119,2013-02-21 22:42:00,
2013-02-21 14:47:00,59.9,40.2,30.11,West,259,1.0,2.0,48,0.00,,,0.00,WeatherCatV1.13B119,2013-02-21 22:47:00,
2013-02-21 14:52:00,61.0,40.6,30.11,NNE,32,0.0,3.0,47,0.00,,,0.00,WeatherCatV1.13B119,2013-02-21 22:52:00,
2013-02-21 14:57:00,62.1,39.9,30.11,NNE,24,1.0,2.0,44,0.00,,,0.00,WeatherCatV1.13B119,2013-02-21 22:57:00,
2013-02-21 15:02:00,62.2,41.7,30.11,NNW,346,0.0,1.0,47,0.00,,,0.00,WeatherCatV1.13B119,2013-02-21 23:02:00,
2013-02-21 15:07:00,62.7,42.7,30.11,NNE,15,0.0,0.0,48,0.00,,,0.00,WeatherCatV1.13B119,2013-02-21 23:07:00,
2013-02-21 15:12:00,63.4,42.8,30.12,NNW,346,0.0,0.0,47,0.00,,,0.00,WeatherCatV1.13B119,2013-02-21 23:12:00,
2013-02-21 15:17:00,62.9,42.9,30.11,NNE,29,3.0,3.0,48,0.00,,,0.00,WeatherCatV1.13B119,2013-02-21 23:17:00,
2013-02-21 15:22:00,62.2,39.4,30.11,NE,34,0.0,1.0,43,0.00,,,0.00,WeatherCatV1.13B119,2013-02-21 23:22:00,
2013-02-21 15:27:00,62.0,39.2,30.11,SW,231,0.0,1.0,43,0.00,,,0.00,WeatherCatV1.13B119,2013-02-21 23:27:00,
2013-02-21 15:32:00,62.2,38.2,30.11,WSW,256,0.0,3.0,41,0.00,,,0.00,WeatherCatV1.13B119,2013-02-21 23:32:00,
2013-02-21 15:37:00,62.3,38.3,30.11,SW,235,1.0,1.0,41,0.00,,,0.00,WeatherCatV1.13B119,2013-02-21 23:37:00,
2013-02-21 15:42:00,61.9,37.9,30.11,NNE,27,0.0,2.0,41,0.00,,,0.00,WeatherCatV1.13B119,2013-02-21 23:42:00,
2013-02-21 15:47:00,62.3,38.3,30.10,ENE,58,0.0,0.0,41,0.00,,,0.00,WeatherCatV1.13B119,2013-02-21 23:47:00,
2013-02-21 15:52:00,61.7,36.5,30.10,NE,41,0.0,1.0,39,0.00,,,0.00,WeatherCatV1.13B119,2013-02-21 23:52:00,
2013-02-21 15:57:00,61.4,35.6,30.10,NNE,32,0.0,2.0,38,0.00,,,0.00,WeatherCatV1.13B119,2013-02-21 23:57:00,
2013-02-21 16:02:00,61.3,36.1,30.10,NNE,24,0.0,0.0,39,0.00,,,0.00,WeatherCatV1.13B119,2013-02-22 00:02:00,
2013-02-21 16:07:00,62.0,36.1,30.10,SSW,203,1.0,4.0,38,0.00,,,0.00,WeatherCatV1.13B119,2013-02-22 00:07:00,
2013-02-21 16:12:00,62.4,35.8,30.10,WNW,300,0.0,1.0,37,0.00,,,0.00,WeatherCatV1.13B119,2013-02-22 00:12:00,
2013-02-21 16:17:00,62.9,38.2,30.10,ENE,57,0.0,0.0,40,0.00,,,0.00,WeatherCatV1.13B119,2013-02-22 00:17:00,
2013-02-21 16:22:00,63.5,37.4,30.11,SW,226,0.0,3.0,38,0.00,,,0.00,WeatherCatV1.13B119,2013-02-22 00:22:00,
2013-02-21 16:27:00,63.8,37.0,30.11,West,269,2.0,6.0,37,0.00,,,0.00,WeatherCatV1.13B119,2013-02-22 00:27:00,
2013-02-21 16:32:00,64.0,37.2,30.11,SW,236,1.0,2.0,37,0.00,,,0.00,WeatherCatV1.13B119,2013-02-22 00:32:00,
2013-02-21 16:37:00,63.7,37.6,30.11,SSW,211,3.0,5.0,38,0.00,,,0.00,WeatherCatV1.13B119,2013-02-22 00:37:00,
2013-02-21 16:42:00,63.1,36.4,30.11,West,274,0.0,0.0,37,0.00,,,0.00,WeatherCatV1.13B119,2013-02-22 00:42:00,
2013-02-21 16:47:00,62.7,36.7,30.10,SSW,211,0.0,0.0,38,0.00,,,0.00,WeatherCatV1.13B119,2013-02-22 00:47:00,
2013-02-21 16:52:00,62.7,37.4,30.11,West,273,0.0,0.0,39,0.00,,,0.00,WeatherCatV1.13B119,2013-02-22 00:52:00,
2013-02-21 16:57:00,63.2,36.5,30.11,SW,214,0.0,0.0,37,0.00,,,0.00,WeatherCatV1.13B119,2013-02-22 00:57:00,
2013-02-21 17:02:00,63.3,35.9,30.11,SSW,207,1.0,3.0,36,0.00,,,0.00,WeatherCatV1.13B119,2013-02-22 01:02:00,
2013-02-21 17:07:00,63.1,36.4,30.11,NNE,15,0.0,1.0,37,0.00,,,0.00,WeatherCatV1.13B119,2013-02-22 01:07:00,
2013-02-21 17:12:00,62.5,37.2,30.11,WSW,253,0.0,1.0,39,0.00,,,0.00,WeatherCatV1.13B119,2013-02-22 01:12:00,
2013-02-21 17:17:00,61.7,35.8,30.11,SW,217,0.0,0.0,38,0.00,,,0.00,WeatherCatV1.13B119,2013-02-22 01:17:00,
2013-02-21 17:22:00,60.3,34.6,30.11,SW,217,0.0,0.0,38,0.00,,,0.00,WeatherCatV1.13B119,2013-02-22 01:22:00,
2013-02-21 17:27:00,59.0,35.9,30.12,NE,51,0.0,0.0,42,0.00,,,0.00,WeatherCatV1.13B119,2013-02-22 01:27:00,
2013-02-21 17:32:00,58.8,36.4,30.11,NNE,32,0.0,0.0,43,0.00,,,0.00,WeatherCatV1.13B119,2013-02-22 01:32:00,
2013-02-21 17:37:00,57.9,35.5,30.11,NNE,32,0.0,0.0,43,0.00,,,0.00,WeatherCatV1.13B119,2013-02-22 01:37:00,
2013-02-21 17:42:00,56.8,35.1,30.11,NE,48,0.0,2.0,44,0.00,,,0.00,WeatherCatV1.13B119,2013-02-22 01:42:00,
2013-02-21 17:47:00,55.8,35.3,30.11,NE,41,1.0,1.0,46,0.00,,,0.00,WeatherCatV1.13B119,2013-02-22 01:47:00,
2013-02-21 17:52:00,55.1,34.7,30.11,West,262,3.0,3.0,46,0.00,,,0.00,WeatherCatV1.13B119,2013-02-22 01:52:00,
2013-02-21 17:57:00,54.6,34.2,30.11,WSW,245,0.0,3.0,46,0.00,,,0.00,WeatherCatV1.13B119,2013-02-22 01:57:00,
2013-02-21 18:02:00,54.2,33.9,30.11,West,264,3.0,3.0,46,0.00,,,0.00,WeatherCatV1.13B119,2013-02-22 02:02:00,
2013-02-21 18:07:00,53.8,34.0,30.11,WSW,257,0.0,2.0,47,0.00,,,0.00,WeatherCatV1.13B119,2013-02-22 02:07:00,
2013-02-21 18:12:00,53.3,34.6,30.11,WSW,253,0.0,0.0,49,0.00,,,0.00,WeatherCatV1.13B119,2013-02-22 02:12:00,
2013-02-21 18:17:00,52.7,34.6,30.11,WSW,253,0.0,0.0,50,0.00,,,0.00,WeatherCatV1.13B119,2013-02-22 02:17:00,
2013-02-21 18:22:00,52.4,34.8,30.11,WSW,252,0.0,0.0,51,0.00,,,0.00,WeatherCatV1.13B119,2013-02-22 02:22:00,
2013-02-21 18:27:00,52.2,35.6,30.11,WSW,252,0.0,0.0,53,0.00,,,0.00,WeatherCatV1.13B119,2013-02-22 02:27:00,
2013-02-21 18:32:00,51.9,34.8,30.12,WSW,253,0.0,0.0,52,0.00,,,0.00,WeatherCatV1.13B119,2013-02-22 02:32:00,
2013-02-21 18:37:00,52.0,35.9,30.12,WSW,253,0.0,0.0,54,0.00,,,0.00,WeatherCatV1.13B119,2013-02-22 02:37:00,
2013-02-21 18:42:00,51.8,34.7,30.12,WSW,253,0.0,0.0,52,0.00,,,0.00,WeatherCatV1.13B119,2013-02-22 02:42:00,
2013-02-21 18:47:00,51.6,34.6,30.13,WSW,253,0.0,0.0,52,0.00,,,0.00,WeatherCatV1.13B119,2013-02-22 02:47:00,
2013-02-21 18:52:00,51.4,32.9,30.13,SW,218,0.0,0.0,49,0.00,,,0.00,WeatherCatV1.13B119,2013-02-22 02:52:00,
2013-02-21 18:57:00,51.5,33.5,30.13,SW,218,0.0,0.0,50,0.00,,,0.00,WeatherCatV1.13B119,2013-02-22 02:57:00,
2013-02-21 19:02:00,51.3,34.8,30.13,NE,40,0.0,0.0,53,0.00,,,0.00,WeatherCatV1.13B119,2013-02-22 03:02:00,
2013-02-21 19:07:00,50.8,35.2,30.13,NE,37,2.0,2.0,55,0.00,,,0.00,WeatherCatV1.13B119,2013-02-22 03:07:00,
2013-02-21 19:12:00,50.2,35.6,30.13,NE,39,0.0,2.0,57,0.00,,,0.00,WeatherCatV1.13B119,2013-02-22 03:12:00,
2013-02-21 19:17:00,50.2,36.0,30.13,NE,39,0.0,2.0,58,0.00,,,0.00,WeatherCatV1.13B119,2013-02-22 03:17:00,
2013-02-21 19:22:00,50.0,36.2,30.14,NE,39,0.0,1.0,59,0.00,,,0.00,WeatherCatV1.13B119,2013-02-22 03:22:00,
2013-02-21 19:27:00,50.3,34.8,30.14,WNW,285,0.0,1.0,55,0.00,,,0.00,WeatherCatV1.13B119,2013-02-22 03:27:00,
2013-02-21 19:32:00,50.4,35.7,30.14,NNE,27,1.0,1.0,57,0.00,,,0.00,WeatherCatV1.13B119,2013-02-22 03:32:00,
2013-02-21 19:37:00,50.3,35.7,30.14,NNE,27,1.0,1.0,57,0.00,,,0.00,WeatherCatV1.13B119,2013-02-22 03:37:00,
2013-02-21 19:42:00,50.3,36.1,30.14,NNE,30,0.0,1.0,58,0.00,,,0.00,WeatherCatV1.13B119,2013-02-22 03:42:00,
2013-02-21 19:47:00,50.0,35.8,30.14,NNE,30,0.0,0.0,58,0.00,,,0.00,WeatherCatV1.13B119,2013-02-22 03:47:00,
2013-02-21 19:52:00,49.8,36.5,30.14,NE,39,2.0,2.0,60,0.00,,,0.00,WeatherCatV1.13B119,2013-02-22 03:52:00,
2013-02-21 19:57:00,49.6,37.1,30.14,NE,39,2.0,2.0,62,0.00,,,0.00,WeatherCatV1.13B119,2013-02-22 03:57:00,
2013-02-21 20:02:00,49.5,37.8,30.13,NE,39,1.0,1.0,64,0.00,,,0.00,WeatherCatV1.13B119,2013-02-22 04:02:00,
2013-02-21 20:07:00,49.5,37.4,30.14,NE,39,0.0,0.0,63,0.00,,,0.00,WeatherCatV1.13B119,2013-02-22 04:07:00,
2013-02-21 20:12:00,49.3,36.8,30.14,NE,39,0.0,1.0,62,0.00,,,0.00,WeatherCatV1.13B119,2013-02-22 04:12:00,
2013-02-21 20:17:00,49.2,37.1,30.14,WNW,297,0.0,0.0,63,0.00,,,0.00,WeatherCatV1.13B119,2013-02-22 04:17:00,
2013-02-21 20:22:00,49.0,37.4,30.14,WNW,297,0.0,0.0,64,0.00,,,0.00,WeatherCatV1.13B119,2013-02-22 04:22:00,
2013-02-21 20:27:00,48.6,37.4,30.14,WNW,297,0.0,0.0,65,0.00,,,0.00,WeatherCatV1.13B119,2013-02-22 04:27:00,
2013-02-21 20:32:00,48.5,37.7,30.14,WNW,293,0.0,0.0,66,0.00,,,0.00,WeatherCatV1.13B119,2013-02-22 04:32:00,
2013-02-21 20:37:00,48.6,39.3,30.14,WNW,293,0.0,0.0,70,0.00,,,0.00,WeatherCatV1.13B119,2013-02-22 04:37:00,
2013-02-21 20:42:00,48.3,39.3,30.14,WNW,297,0.0,0.0,71,0.00,,,0.00,WeatherCatV1.13B119,2013-02-22 04:42:00,
2013-02-21 20:47:00,48.3,37.5,30.14,NNE,22,0.0,0.0,66,0.00,,,0.00,WeatherCatV1.13B119,2013-02-22 04:47:00,
2013-02-21 20:52:00,48.6,38.1,30.15,NNE,22,0.0,0.0,67,0.00,,,0.00,WeatherCatV1.13B119,2013-02-22 04:52:00,
2013-02-21 20:57:00,48.6,40.3,30.15,NNE,13,0.0,0.0,73,0.00,,,0.00,WeatherCatV1.13B119,2013-02-22 04:57:00,
2013-02-21 21:00:00,48.5,40.6,30.15,NNE,13,0.0,0.0,74,0.00,,,0.00,WeatherCatV1.13B119,2013-02-22 05:00:00,
2013-02-21 21:05:00,48.2,40.0,30.15,NNE,15,0.0,0.0,73,0.00,,,0.00,WeatherCatV1.13B119,2013-02-22 05:05:00,
2013-02-21 21:10:00,49.1,36.6,30.15,NNE,32,0.0,0.0,62,0.00,,,0.00,WeatherCatV1.13B119,2013-02-22 05:10:00,
2013-02-21 21:15:00,49.7,36.8,30.15,NE,40,0.0,0.0,61,0.00,,,0.00,WeatherCatV1.13B119,2013-02-22 05:15:00,
2013-02-21 21:21:00,49.8,38.5,30.16,NE,37,0.0,0.0,65,0.00,,,0.00,WeatherCatV1.13B119,2013-02-22 05:21:00,
2013-02-21 21:24:00,49.7,39.9,30.16,NE,37,0.0,0.0,69,0.00,,,0.00,WeatherCatV1.13B119,2013-02-22 05:24:00,
2013-02-21 21:29:00,49.4,40.0,30.16,NE,37,0.0,0.0,70,0.00,,,0.00,WeatherCatV1.13B119,2013-02-22 05:29:00,
2013-02-21 21:34:00,49.0,37.8,30.16,NE,37,0.0,0.0,65,0.00,,,0.00,WeatherCatV1.13B119,2013-02-22 05:34:00,
2013-02-21 21:39:00,49.4,37.3,30.16,NE,37,0.0,0.0,63,0.00,,,0.00,WeatherCatV1.13B119,2013-02-22 05:39:00,
2013-02-21 21:44:00,49.6,37.1,30.16,NW,321,0.0,0.0,62,0.00,,,0.00,WeatherCatV1.13B119,2013-02-22 05:44:00,
2013-02-21 21:49:00,49.7,39.6,30.16,WNW,299,0.0,0.0,68,0.00,,,0.00,WeatherCatV1.13B119,2013-02-22 05:49:00,
2013-02-21 21:54:00,49.5,38.6,30.16,WNW,299,0.0,0.0,66,0.00,,,0.00,WeatherCatV1.13B119,2013-02-22 05:54:00,
2013-02-21 21:58:00,49.4,37.7,30.16,WNW,299,0.0,0.0,64,0.00,,,0.00,WeatherCatV1.13B119,2013-02-22 05:58:00,
2013-02-21 22:02:00,49.5,37.8,30.16,WNW,300,0.0,0.0,64,0.00,,,0.00,WeatherCatV1.13B119,2013-02-22 06:02:00,
2013-02-21 22:07:00,49.7,38.4,30.16,WNW,300,0.0,0.0,65,0.00,,,0.00,WeatherCatV1.13B119,2013-02-22 06:07:00,
2013-02-21 22:12:00,49.5,38.2,30.16,WNW,300,0.0,0.0,65,0.00,,,0.00,WeatherCatV1.13B119,2013-02-22 06:12:00,
2013-02-21 22:17:00,49.2,39.8,30.16,NW,304,0.0,0.0,70,0.00,,,0.00,WeatherCatV1.13B119,2013-02-22 06:17:00,
2013-02-21 22:22:00,49.0,40.4,30.17,NW,304,0.0,0.0,72,0.00,,,0.00,WeatherCatV1.13B119,2013-02-22 06:22:00,
2013-02-21 22:27:00,48.6,40.0,30.17,NW,304,0.0,0.0,72,0.00,,,0.00,WeatherCatV1.13B119,2013-02-22 06:27:00,
2013-02-21 22:32:00,48.2,39.2,30.17,NW,304,0.0,0.0,71,0.00,,,0.00,WeatherCatV1.13B119,2013-02-22 06:32:00,
2013-02-21 22:37:00,47.8,38.9,30.17,NW,304,0.0,0.0,71,0.00,,,0.00,WeatherCatV1.13B119,2013-02-22 06:37:00,
2013-02-21 22:42:00,47.6,38.7,30.17,NW,304,0.0,0.0,71,0.00,,,0.00,WeatherCatV1.13B119,2013-02-22 06:42:00,
2013-02-21 22:47:00,47.5,38.6,30.17,NW,304,0.0,0.0,71,0.00,,,0.00,WeatherCatV1.13B119,2013-02-22 06:47:00,
2013-02-21 22:52:00,47.4,38.8,30.17,NW,304,0.0,0.0,72,0.00,,,0.00,WeatherCatV1.13B119,2013-02-22 06:52:00,
2013-02-21 22:57:00,47.3,38.7,30.17,NW,304,0.0,0.0,72,0.00,,,0.00,WeatherCatV1.13B119,2013-02-22 06:57:00,
2013-02-21 23:02:00,47.2,39.0,30.17,NW,304,0.0,0.0,73,0.00,,,0.00,WeatherCatV1.13B119,2013-02-22 07:02:00,
2013-02-21 23:07:00,47.2,39.0,30.17,NW,304,0.0,0.0,73,0.00,,,0.00,WeatherCatV1.13B119,2013-02-22 07:07:00,
2013-02-21 23:12:00,47.1,38.9,30.17,NW,304,0.0,0.0,73,0.00,,,0.00,WeatherCatV1.13B119,2013-02-22 07:12:00,
2013-02-21 23:17:00,46.9,38.7,30.17,WNW,302,0.0,0.0,73,0.00,,,0.00,WeatherCatV1.13B119,2013-02-22 07:17:00,
2013-02-21 23:22:00,46.8,39.0,30.17,NW,304,0.0,0.0,74,0.00,,,0.00,WeatherCatV1.13B119,2013-02-22 07:22:00,
2013-02-21 23:27:00,46.8,39.3,30.17,WNW,303,0.0,0.0,75,0.00,,,0.00,WeatherCatV1.13B119,2013-02-22 07:27:00,
2013-02-21 23:32:00,46.7,39.2,30.17,NW,304,0.0,0.0,75,0.00,,,0.00,WeatherCatV1.13B119,2013-02-22 07:32:00,
2013-02-21 23:37:00,46.7,39.2,30.17,WNW,301,0.0,0.0,75,0.00,,,0.00,WeatherCatV1.13B119,2013-02-22 07:37:00,
2013-02-21 23:42:00,46.7,38.9,30.17,NW,304,0.0,0.0,74,0.00,,,0.00,WeatherCatV1.13B119,2013-02-22 07:42:00,
2013-02-21 23:47:00,46.6,39.1,30.17,WNW,302,0.0,0.0,75,0.00,,,0.00,WeatherCatV1.13B119,2013-02-22 07:47:00,
2013-02-21 23:52:00,46.6,39.1,30.17,WNW,301,0.0,0.0,75,0.00,,,0.00,WeatherCatV1.13B119,2013-02-22 07:52:00,
2013-02-21 23:57:00,46.8,39.0,30.17,WNW,302,0.0,0.0,74,0.00,,,0.00,WeatherCatV1.13B119,2013-02-22 07:57:00,